Showing default

OV3-3, 2389

Orbit data source: Space-Track

OV3-3, 2389 is a payload satellite owned by USAF OAR (US) in LEO that was launched on Thu, 04 Aug 1966 UTC via an SCOUT B launch vehicle from the Air Force Western Test Range (AFWTR). Payload-class satellites include a variety of spacecraft equipped with specific instruments for various scientific and technological missions. These include communications satellites like Starlink; space stations such as the ISS; scientific satellites like the Hubble; Earth observation satellites from companies like Planet Labs, Umbra, and HawkEye 360; GPS; miniature CubeSats for education and research; and military/defense satellites.

Loading next visibility...
Identifier
2389, 1966-070A
Orbit
LEO
Country
Flag of USUS
Related business
Manufacturer
Space General
Mission
Spacecraft
Bus & Motor
OV3, Unknown motor
Mass
77 kg wet, 77 kg dry
Launch date (UTC)
1966-08-04 (60 years ago)
Launch vehicle
SCOUT B
Launch site
Air Force Western Test Range (AFWTR)
Object type
Payload
Rocket body
Debris
Shape & HBR
OCT CYL + 2 ANT, 1.1 m
Radar Cross Section
Medium (>0.1 m² and <1 m²)

Expand to show TLE details & history
Last TLE update: 10 hours ago

TLE from 10 hours ago
0 OV3-3
1 02389U 66070A   26256.56150651  .00007686  00000-0  34541-3 0  9998
2 02389  81.3215 252.9041 1002439 287.9894  61.4584 13.47291230610864
Epoch: 2026-09-13T13:28Z
TLE epoch observation values (Epoch: 2026-09-13T13:28:34.162Z)
Latitude
-0.00004°
Longitude
58.20737°
Altitude
789.667 km
Speed
7.605 km/s
True Right ascension
16h 51m 36s
True Declination
0° 00' 00"
Sunlit
Object was in daylight at epoch
Visualization orbit readout
Latitude
Unknown
Longitude
Unknown
Altitude
Unknown
Speed
Unknown
Apparent Right ascension
Unknown
Apparent Declination
Unknown
Sunlit
N/A
Visualization observer readout
Local Sidereal Time
15:31:44
Azimuth
Unknown
Elevation
Unknown
Doppler factor
Unknown
Orbital elements
Apogee altitude
1,827.033 km
Perigee altitude
331.877 km
Semi-major axis
7,457.592 km
Eccentricity
0.10024
Inclination
81.3215°
RAAN
252.9041°
Arg. of periapsis
287.9894°
True anomaly
72.12791°
Mean anomaly
61.4584°
Eccentric anomaly
66.73493°
Mean motion
3.37012 °/min
Orbital period
106.82 mins
BSTAR
0.00034541
Loading maneuver chart data...
Computing Atmospheric mass density...
Loading historical data...
Loading historical data...
Loading historical data...
Loading historical data...
Loading historical data...
Loading historical data...
Loading historical data...
Other satellites on launch #70 in the year 1966 (1966-08-04 UTC)

Documentation

Showing up to 5 results
|